Weather History for KJKJ - January, 2014

Change the Weather History Date:

Monday, January 27, 2014

  Actual Average (KFAR) Record (KFAR)
Temperature  
Mean Temperature -12 °F 10 °F  
Max Temperature -7 °F 19 °F 41 °F (1892)
Min Temperature -18 °F 0 °F -31 °F (2004)
Degree Days  
Heating Degree Days 78 55  
Month to date heating degree days 1507  
Since 1 July heating degree days 5047  
Cooling Degree Days 0 0  
Month to date cooling degree days 0  
Year to date cooling degree days 0  
Moisture  
Dew Point -19 °F    
Average Humidity 74    
Maximum Humidity 84    
Minimum Humidity 59    
Precipitation  
Precipitation 0.00 in 0.02 in 0.50 in (1903)
Month to date precipitation 0.62  
Year to date precipitation 0.62  
Snow  
Snow 0.00 in 0.30 in 5.00 in (1903)
Month to date snowfall 10.0  
Since 1 July snowfall 29.8  
Snow Depth -    
Sea Level Pressure  
Sea Level Pressure 30.39 in    
Wind  
Wind Speed 13 mph (WNW)    
Max Wind Speed 23 mph    
Max Gust Speed 26 mph    
Visibility 9 miles    
Events Snow    
T = Trace of Precipitation, MM = Missing Value Source: NWS Daily Summary

Daily Weather History Graph

Daily Weather History Graph

Search for Another Location

Airport or City:

Trip Planner

Search our weather history database for the weather conditions in past years. The results will help you decide how hot, cold, wet, or windy it might be!

Date:

Astronomy

Jan. 27, 2014 Rise Set
Actual Time 7:56 AM CST 5:22 PM CST
Civil Twilight 7:24 AM CST 5:55 PM CST
Nautical Twilight 6:47 AM CST 6:32 PM CST
Astronomical Twilight 6:11 AM CST 7:07 PM CST
Moon 4:42 AM CST (1/27) 2:06 PM CST (1/27)
Length of Visible Light 10h 31m
Length of Day
9h 25m
Waning Crescent, 14% of the Moon is Illuminated
Jan 27
Waning Crescent
Jan 30
New
Feb 6
First Quarter
Feb 14
Full
Feb 22
Last Quarter

Hourly Weather History & Observations

Time (CST) Temp. Windchill Dew Point Humidity Pressure Visibility Wind Dir Wind Speed Gust Speed Precip Events Conditions
12:15 AM -11.2 °F -35.2 °F -16.6 °F 77% 30.26 in 10.0 mi NW 17.3 mph - N/A   Overcast
12:35 AM -11.2 °F -34.4 °F -14.8 °F 84% 30.27 in 2.0 mi NW 16.1 mph - N/A   Overcast
12:55 AM -11.2 °F -35.8 °F -14.8 °F 84% 30.27 in 2.0 mi NNW 18.4 mph 25.3 mph N/A   Overcast
1:15 AM -11.2 °F -37.0 °F -16.6 °F 77% 30.28 in 3.0 mi NNW 20.7 mph 25.3 mph N/A   Haze
1:35 AM -11.2 °F -35.8 °F -16.6 °F 77% 30.29 in 2.5 mi NNW 18.4 mph 26.5 mph N/A   Haze
1:55 AM -11.2 °F -38.2 °F -16.6 °F 77% 30.29 in 1.5 mi NNW 23.0 mph - N/A Snow Light Snow
2:15 AM -11.2 °F -37.6 °F -16.6 °F 77% 30.30 in 2.0 mi NNW 21.9 mph - N/A   Overcast
2:35 AM -11.2 °F -35.8 °F -16.6 °F 77% 30.32 in 3.0 mi NNW 18.4 mph 24.2 mph N/A   Overcast
2:55 AM -13.0 °F -36.8 °F -18.4 °F 77% 30.33 in 7.0 mi North 16.1 mph - N/A   Scattered Clouds
3:15 AM -13.0 °F -40.0 °F -18.4 °F 77% 30.34 in 1.5 mi North 21.9 mph - N/A Snow Light Snow
3:35 AM -14.8 °F -41.2 °F -18.4 °F 84% 30.35 in 2.5 mi North 19.6 mph - N/A   Overcast
3:55 AM -14.8 °F -39.1 °F -18.4 °F 84% 30.36 in 5.0 mi North 16.1 mph - N/A   Haze
4:15 AM -14.8 °F -38.3 °F -20.2 °F 77% 30.37 in 10.0 mi North 15.0 mph - N/A   Scattered Clouds
4:35 AM -14.8 °F -36.6 °F -20.2 °F 77% 30.37 in 10.0 mi NNW 12.7 mph - N/A   Clear
4:55 AM -16.6 °F -38.9 °F -20.2 °F 84% 30.37 in 10.0 mi NNW 12.7 mph - N/A   Clear
5:15 AM -16.6 °F -36.8 °F -20.2 °F 84% 30.38 in 10.0 mi NNW 10.4 mph - N/A   Scattered Clouds
5:35 AM -16.6 °F -35.7 °F -22.0 °F 76% 30.38 in 10.0 mi NNW 9.2 mph - N/A   Scattered Clouds
5:55 AM -18.4 °F -35.1 °F -23.8 °F 76% 30.39 in 7.0 mi NW 6.9 mph - N/A   Mostly Cloudy
6:15 AM -16.6 °F -35.7 °F -22.0 °F 76% 30.39 in 10.0 mi NW 9.2 mph - N/A   Scattered Clouds
6:35 AM -16.6 °F -36.8 °F -22.0 °F 76% 30.40 in 10.0 mi NW 10.4 mph - N/A   Scattered Clouds
6:54 AM -16.6 °F -38.9 °F -23.8 °F 70% 30.40 in 10.0 mi NW 12.7 mph - N/A   Scattered Clouds
7:15 AM -16.6 °F -36.8 °F -23.8 °F 70% 30.40 in 10.0 mi NNW 10.4 mph - N/A   Clear
7:35 AM -16.6 °F -34.4 °F -23.8 °F 70% 30.41 in 10.0 mi NW 8.1 mph - N/A   Clear
7:55 AM -18.4 °F -36.6 °F -23.8 °F 76% 30.42 in 10.0 mi NW 8.1 mph - N/A   Clear
8:15 AM -18.4 °F -36.6 °F -23.8 °F 76% 30.42 in 10.0 mi NW 8.1 mph - N/A   Clear
8:35 AM -18.4 °F -36.6 °F -23.8 °F 76% 30.43 in 10.0 mi NW 8.1 mph - N/A   Clear
8:55 AM -16.6 °F -36.8 °F -23.8 °F 70% 30.42 in 10.0 mi NNW 10.4 mph - N/A   Clear
9:15 AM -16.6 °F -35.7 °F -23.8 °F 70% 30.43 in 10.0 mi NNW 9.2 mph - N/A   Clear
9:35 AM -14.8 °F -33.5 °F -23.8 °F 64% 30.43 in 10.0 mi NNW 9.2 mph - N/A   Clear
9:55 AM -14.8 °F -33.5 °F -22.0 °F 70% 30.44 in 10.0 mi NNW 9.2 mph - N/A   Clear
10:15 AM -14.8 °F -34.6 °F -22.0 °F 70% 30.45 in 10.0 mi NNW 10.4 mph - N/A   Clear
10:35 AM -13.0 °F -33.4 °F -22.0 °F 64% 30.45 in 10.0 mi NW 11.5 mph - N/A   Clear
10:55 AM -13.0 °F -34.3 °F -20.2 °F 70% 30.45 in 10.0 mi NW 12.7 mph - N/A   Clear
11:15 AM -13.0 °F -32.4 °F -20.2 °F 70% 30.46 in 10.0 mi NW 10.4 mph - N/A   Clear
11:34 AM -11.2 °F -31.1 °F -20.2 °F 64% 30.45 in 10.0 mi NW 11.5 mph - N/A   Clear
11:55 AM -11.2 °F -29.0 °F -20.2 °F 64% 30.46 in 10.0 mi NW 9.2 mph - N/A   Clear
12:15 PM -11.2 °F -27.8 °F -20.2 °F 64% 30.45 in 10.0 mi NW 8.1 mph - N/A   Clear
12:34 PM -11.2 °F -27.8 °F -20.2 °F 64% 30.45 in 10.0 mi NW 8.1 mph - N/A   Clear
12:55 PM -11.2 °F -30.1 °F -18.4 °F 70% 30.45 in 10.0 mi NW 10.4 mph - N/A   Clear
1:15 PM -9.4 °F -27.9 °F -18.4 °F 65% 30.44 in 10.0 mi WNW 10.4 mph - N/A   Clear
1:34 PM -9.4 °F -25.6 °F -18.4 °F 65% 30.44 in 10.0 mi WNW 8.1 mph - N/A   Clear
1:55 PM -9.4 °F -27.9 °F -18.4 °F 65% 30.43 in 10.0 mi West 10.4 mph - N/A   Clear
2:15 PM -9.4 °F -26.8 °F -18.4 °F 65% 30.42 in 10.0 mi WNW 9.2 mph - N/A   Clear
2:34 PM -9.4 °F -27.9 °F -18.4 °F 65% 30.41 in 10.0 mi WNW 10.4 mph - N/A   Clear
2:55 PM -7.6 °F -25.7 °F -18.4 °F 59% 30.41 in 10.0 mi WNW 10.4 mph - N/A   Clear
3:14 PM -7.6 °F -23.4 °F -18.4 °F 59% 30.41 in 10.0 mi West 8.1 mph - N/A   Clear
3:35 PM -7.6 °F -25.7 °F -16.6 °F 65% 30.40 in 10.0 mi West 10.4 mph - N/A   Clear
3:55 PM -7.6 °F -25.7 °F -16.6 °F 65% 30.40 in 10.0 mi West 10.4 mph - N/A   Clear
4:15 PM -7.6 °F -26.6 °F -16.6 °F 65% 30.40 in 10.0 mi West 11.5 mph - N/A   Clear
4:35 PM -7.6 °F -23.4 °F -16.6 °F 65% 30.40 in 10.0 mi West 8.1 mph - N/A   Clear
4:55 PM -7.6 °F -23.4 °F -16.6 °F 65% 30.40 in 10.0 mi WNW 8.1 mph - N/A   Clear
5:15 PM -9.4 °F -26.8 °F -16.6 °F 71% 30.40 in 10.0 mi WNW 9.2 mph - N/A   Clear
5:35 PM -9.4 °F -24.3 °F -16.6 °F 71% 30.40 in 10.0 mi West 6.9 mph - N/A   Clear
5:55 PM -9.4 °F -18.6 °F -16.6 °F 71% 30.40 in 10.0 mi West 3.5 mph - N/A   Clear
6:14 PM -11.2 °F -23.0 °F -18.4 °F 70% 30.40 in 10.0 mi WSW 4.6 mph - N/A   Clear
6:35 PM -11.2 °F -24.8 °F -18.4 °F 70% 30.40 in 10.0 mi WSW 5.8 mph - N/A   Clear
6:55 PM -11.2 °F -24.8 °F -18.4 °F 70% 30.40 in 10.0 mi WSW 5.8 mph - N/A   Clear
7:15 PM -13.0 °F -25.1 °F -18.4 °F 77% 30.40 in 10.0 mi WSW 4.6 mph - N/A   Clear
7:35 PM -13.0 °F -27.0 °F -18.4 °F 77% 30.40 in 10.0 mi West 5.8 mph - N/A   Clear
7:55 PM -11.2 °F -24.8 °F -16.6 °F 77% 30.40 in 10.0 mi West 5.8 mph - N/A   Clear
8:15 PM -14.8 °F -30.8 °F -20.2 °F 77% 30.40 in 10.0 mi West 6.9 mph - N/A   Clear
8:35 PM -14.8 °F -29.1 °F -18.4 °F 84% 30.39 in 10.0 mi West 5.8 mph - N/A   Clear
8:55 PM -13.0 °F -27.0 °F -18.4 °F 77% 30.39 in 10.0 mi West 5.8 mph - N/A   Clear
9:15 PM -11.2 °F -24.8 °F -16.6 °F 77% 30.39 in 10.0 mi West 5.8 mph - N/A   Clear
9:35 PM -14.8 °F -27.2 °F -18.4 °F 84% 30.39 in 10.0 mi West 4.6 mph - N/A   Clear
9:55 PM -14.8 °F -29.1 °F -18.4 °F 84% 30.38 in 10.0 mi West 5.8 mph - N/A   Clear
10:15 PM -16.6 °F -29.3 °F -20.2 °F 84% 30.37 in 10.0 mi West 4.6 mph - N/A   Clear
10:35 PM -16.6 °F -32.9 °F -20.2 °F 84% 30.36 in 10.0 mi West 6.9 mph - N/A   Clear
10:55 PM -16.6 °F -32.9 °F -20.2 °F 84% 30.37 in 10.0 mi West 6.9 mph - N/A   Clear
11:15 PM -16.6 °F -31.3 °F -20.2 °F 84% 30.36 in 10.0 mi West 5.8 mph - N/A   Clear
11:35 PM -14.8 °F -29.1 °F -18.4 °F 84% 30.36 in 10.0 mi West 5.8 mph - N/A   Clear
11:55 PM -18.4 °F -33.4 °F -22.0 °F 84% 30.36 in 10.0 mi WNW 5.8 mph - N/A   Clear